Flag for United Kingdom Weather past 2 weeks in Inverness, Scotland, United Kingdom

Now
54 °F

Rain showers. Passing clouds.


Feels Like: 50 °F
Forecast: 39 / 53 °F
Wind: 10 mph from Southwest

Location: Inverness / Dalcross

Current Time: Oct 21, 2014 at 5:49:55 AM

Latest Report: Oct 21, 2014 at 5:20 AM


Visibility: N/A

Pressure: 28.91 "Hg

Humidity: 88%

Dew point: 50 °F

Location of InvernessLocation

Historic Weather in Inverness — Graph

°F

Inverness temperature yesterday

Maximum temperature yesterday: 55 °F (at 1:20 PM)
Minimum temperature yesterday: 46 °F (at 4:20 AM)
Average temperature yesterday: 52 °F

Past Weeks' High & Low Weather Summary

 TemperatureHumidityPressure
High63 °F (Oct 17, 2:20 PM)100% (Oct 6, 11:20 PM)30.01 "Hg (Oct 6, 11:20 PM)
Low32 °F (Oct 16, 12:50 AM)58% (Oct 14, 1:50 PM)28.94 "Hg (Oct 21, 4:20 AM)
Average49 °F89%29.57 "Hg
* Reported Oct 6 4:20 AM — Oct 21 4:20 AM, Inverness, Weather by CustomWeather, © 2014

Note: Actual official high and low records may vary slightly from our data, if they occured in-between our weather recording intervals... More about our weather records

Advertising

Inverness weather history for previous 24 hours

 ConditionsComfort  
Time TempWeatherWind HumidityBarometerVisibility
4:20 AM
Oct 21
55 °FPassing clouds.9 mph82%28.94 "HgN/A
3:50 AM55 °FPassing clouds.8 mph77%28.97 "HgN/A
3:20 AM55 °FSprinkles. Passing clouds.13 mph82%29.00 "HgN/A
2:50 AM55 °FPassing clouds.16 mph82%29.03 "HgN/A
2:20 AM55 °FDrizzle. Overcast.15 mph82%29.06 "HgN/A
1:50 AM55 °FCool.12 mph77%29.09 "HgN/A
1:20 AM55 °FCool.14 mph77%29.12 "HgN/A
12:50 AM55 °FCool.10 mph82%29.18 "HgN/A
12:20 AM54 °FPassing clouds.No wind82%29.21 "HgN/A
11:50 PM
Oct 20
55 °FPassing clouds.7 mph77%29.24 "HgN/A
11:20 PM55 °FPassing clouds.5 mph77%29.27 "HgN/A
10:50 PM55 °FPassing clouds.6 mph77%29.30 "HgN/A
10:20 PM55 °FPassing clouds.12 mph77%29.33 "HgN/A
9:50 PM54 °FPassing clouds.3 mph82%29.36 "HgN/A
9:20 PM54 °FPassing clouds.No wind82%29.39 "HgN/A
8:50 PM54 °FPassing clouds.3 mph82%29.42 "HgN/A
8:20 PM54 °FPassing clouds.12 mph82%29.42 "HgN/A
7:50 PM54 °FPassing clouds.9 mph82%29.45 "HgN/A
7:20 PM54 °FPassing clouds.16 mph82%29.47 "HgN/A
6:50 PM54 °FPassing clouds.15 mph88%29.47 "HgN/A
6:20 PM54 °FScattered showers. Passing clouds.16 mph88%29.50 "HgN/A
5:50 PM54 °FScattered clouds.14 mph88%29.50 "HgN/A
5:20 PM54 °FScattered clouds.15 mph88%29.50 "HgN/A
4:50 PM54 °FScattered clouds.15 mph88%29.53 "HgN/A
4:20 PM54 °FScattered clouds.14 mph82%29.53 "HgN/A
3:50 PM55 °FScattered clouds.13 mph77%29.56 "HgN/A
3:20 PM55 °FScattered clouds.16 mph77%29.56 "HgN/A
2:50 PM55 °FScattered clouds.16 mph77%29.56 "HgN/A
2:20 PM55 °FPartly sunny.16 mph77%29.59 "HgN/A
1:50 PM54 °FPartly sunny.16 mph82%29.59 "HgN/A
1:20 PM55 °FPartly sunny.14 mph77%29.62 "HgN/A
12:50 PM52 °FScattered clouds.14 mph88%29.62 "HgN/A
12:20 PM54 °FPartly sunny.16 mph82%29.62 "HgN/A
11:50 AM54 °FPartly sunny.13 mph82%29.65 "HgN/A
11:20 AM52 °FScattered clouds.12 mph88%29.65 "HgN/A
10:50 AM52 °FScattered clouds.10 mph88%29.62 "HgN/A
10:20 AM52 °FScattered clouds.10 mph88%29.62 "HgN/A
9:50 AM50 °FBroken clouds.7 mph94%29.62 "HgN/A
9:20 AM50 °FBroken clouds.8 mph94%29.65 "HgN/A
8:50 AM50 °FPartly cloudy.7 mph94%29.65 "HgN/A
8:20 AM50 °FPartly cloudy.8 mph94%29.65 "HgN/A
7:50 AM48 °FPassing clouds.3 mph94%29.62 "HgN/A
7:20 AM48 °FPassing clouds.6 mph94%29.62 "HgN/A
6:50 AM46 °FPassing clouds.3 mph93%29.62 "HgN/A
6:20 AM46 °FClear.7 mph100%29.62 "Hg10 mi
5:50 AM46 °FCool.10 mph93%29.62 "Hg5 mi
Weather by CustomWeather, © 2014

See weather overviewHow to use our weather pages